TimeCST,TemperatureF,Dew PointF,Humidity,Sea Level PressureIn,VisibilityMPH,Wind Direction,Wind SpeedMPH,Gust SpeedMPH,PrecipitationIn,Events,Conditions,WindDirDegrees,DateUTC
12:52 AM,39.0,30.0,70,29.90,10.0,West,21.9,31.1,N/A,,Partly Cloudy,280,2012-11-23 06:52:00
1:41 AM,39.2,30.2,70,29.90,10.0,West,15.0,23.0,N/A,,Mostly Cloudy,270,2012-11-23 07:41:00
1:52 AM,37.9,28.9,70,29.91,10.0,West,13.8,25.3,N/A,,Scattered Clouds,270,2012-11-23 07:52:00
2:52 AM,37.9,28.9,70,29.90,10.0,West,12.7,20.7,N/A,,Clear,270,2012-11-23 08:52:00
3:52 AM,37.9,28.9,70,29.90,10.0,West,13.8,21.9,N/A,,Clear,270,2012-11-23 09:52:00
4:52 AM,39.0,28.9,67,29.89,10.0,West,15.0,25.3,N/A,,Overcast,260,2012-11-23 10:52:00
5:52 AM,36.0,23.0,59,29.91,10.0,WNW,26.5,36.8,N/A,,Mostly Cloudy,300,2012-11-23 11:52:00
7:52 AM,30.9,19.0,61,29.98,10.0,WNW,20.7,31.1,N/A,,Overcast,290,2012-11-23 13:52:00
8:52 AM,30.0,17.1,59,30.01,10.0,WNW,25.3,29.9,N/A,,Overcast,290,2012-11-23 14:52:00
9:52 AM,30.0,17.1,59,30.04,10.0,WNW,24.2,32.2,N/A,,Overcast,300,2012-11-23 15:52:00
10:52 AM,30.9,16.0,54,30.06,10.0,WNW,23.0,31.1,N/A,,Overcast,300,2012-11-23 16:52:00
11:52 AM,30.9,16.0,54,30.07,10.0,WNW,18.4,31.1,N/A,,Overcast,300,2012-11-23 17:52:00
12:52 PM,33.1,17.1,52,30.08,10.0,WNW,18.4,34.5,N/A,,Scattered Clouds,300,2012-11-23 18:52:00
1:52 PM,30.9,17.1,57,30.11,10.0,West,20.7,28.8,N/A,,Overcast,280,2012-11-23 19:52:00
2:52 PM,30.9,17.1,57,30.14,10.0,WNW,19.6,25.3,N/A,,Overcast,290,2012-11-23 20:52:00
3:52 PM,30.0,16.0,56,30.17,10.0,WNW,15.0,-,N/A,,Overcast,290,2012-11-23 21:52:00
4:52 PM,30.0,16.0,56,30.19,10.0,WNW,15.0,27.6,N/A,,Overcast,300,2012-11-23 22:52:00
5:52 PM,30.0,17.1,59,30.21,10.0,West,15.0,-,N/A,,Overcast,280,2012-11-23 23:52:00
6:52 PM,28.9,17.1,61,30.22,10.0,WNW,15.0,-,N/A,,Overcast,300,2012-11-24 00:52:00
7:52 PM,28.9,16.0,58,30.23,10.0,NW,17.3,21.9,N/A,,Overcast,320,2012-11-24 01:52:00
8:52 PM,28.9,17.1,61,30.24,10.0,NW,12.7,-,N/A,,Overcast,320,2012-11-24 02:52:00
9:52 PM,28.0,16.0,61,30.24,10.0,NNW,10.4,-,N/A,,Overcast,340,2012-11-24 03:52:00
10:52 PM,28.0,16.0,61,30.23,10.0,NW,11.5,-,N/A,,Overcast,320,2012-11-24 04:52:00
11:52 PM,28.0,16.0,61,30.25,10.0,NW,17.3,-,N/A,,Overcast,310,2012-11-24 05:52:00